Regional Weather Roundup
Issued by NWS Goodland, KS

Home | Current Version | Previous Version | Graphics & Text | Print | Product List | Glossary On
Versions: 1 2 3 4 5 6 7 8 9 10 11 12 13 14 15 16 17 18 19 20 21 22 23 24 25 26 27 28 29 30 31 32 33 34 35 36 37 38 39 40 41 42 43 44 45 46 47 48 49 50
000
ASUS43 KGLD 211808
RWRGLD

GOODLAND FORECAST AREA HOURLY WEATHER ROUNDUP
NATIONAL WEATHER SERVICE GOODLAND KS
1100 AM MST SUN JAN 21 2018

...OFFICIAL OBSERVATIONS...

CITY           SKY/WX    TMP DP  RH WIND       PRES   REMARKS
GOODLAND KS    FRZ RAIN  31  30  96 N15       29.71F FOG
HILL CITY KS   LGT RAIN  36  36 100 NE10      29.71F VSB 1/2
IMPERIAL NEB   CLOUDY    32  28  85 NE22G33   29.77F WCI  19
MCCOOK NEB     CLOUDY    33  32  96 N23G32    29.71F
AKRON CO       SNOW      28  26  92 N23G29    29.78F VSB 1/2 WCI  14
BURLINGTON CO  FRZ RAIN  30  29  96 N23G32    29.68F FOG     WCI  17
LIMON CO       LGT SNOW  26  23  88 N21G30    29.73S VSB 1   WCI  12
$$

...UNOFFICIAL OBSERVATIONS...

CITY           SKY/WX    TMP DP  RH WIND       PRES   REMARKS
COLBY KS       DRIZZLE   32  32 100 N7        29.73R
NORTON KS      CLOUDY    34  30  86 N13       29.70  FOG
SHARON SPRINGS   N/A     31  30  94 NE14G21     N/A
KIT CARSON CO    N/A     29  26  87 MISG        N/A
YUMA CO        LGT SNOW  28  27  93 N20G26    29.78F WCI  15
$$



USA.gov is the U.S. government's official web portal to all federal, state and local government web resources and services.